Location: Gniazdowice
(50.2124°N, 20.2673°E)
Time: 23:31:52
(UTC+00:00)

ADEOS II - Pass Details

Date: 23 May 2024
Orbit: 796 x 798 km, 98.7° (Epoch: 22 June)

Event Time Altitude Azimuth Distance (km) Brightness Sun altitude
Rises 01:11:30 0° 15° (NNE) 3,314 6.7 -11.2°
Reaches altitude 10° 01:13:50 10° 15° (NNE) 2,379 5.8 -11.0°
Maximum altitude 01:19:07 89° 106° (ESE) 804 2.1 -10.5°
Enters shadow 01:24:18 10° 197° (SSW) 2,344 3.9 -10.0°
